Location: Unspecified
(0.0000°N, 0.0000°E)
Time: 14:13:58
(UTC+00:00)

N. Korean satellite - Pass Details

Date: 14 April 2021
Orbit: 452 x 499 km, 97.2° (Epoch: 15 April)

Event Time Altitude Azimuth Distance (km) Brightness Sun altitude
Rises 05:26:30 0° 353° (N) 2,514 10.2 -8.3°
Reaches altitude 10° 05:28:46 10° 341° (NNW) 1,631 9.1 -7.8°
Maximum altitude 05:31:47 27° 281° (W) 920 7.5 -7.0°
Drops below altitude 10° 05:34:47 10° 221° (SW) 1,616 8.8 -6.3°
Sets 05:37:01 0° 209° (SSW) 2,486 9.8 -5.7°
